This is the latest recevied weather packets stored in our database for station/object W0WC. If no packets are shown the sender has not sent any weather packets the latest 10 day(s).
| Time | Temp. | Humidity | Pressure | Rain* | Wind** | Luminosity | Snow |
|---|---|---|---|---|---|---|---|
| 1788482474 | 35° C | 40% | 1012.5 hPa | 0 mm | - | 5 W/m² | - |
| 1788482171 | 35° C | 40% | 1012.5 hPa | 0 mm | - | 8 W/m² | - |
| 1788481866 | 35° C | 40% | 1012.4 hPa | 0 mm | - | 11 W/m² | - |
| 1788481562 | 35.56° C | 39% | 1012.4 hPa | 0 mm | - | 14 W/m² | - |
| 1788481262 | 35.56° C | 39% | 1012.6 hPa | 0 mm | - | 18 W/m² | - |
| 1788480957 | 35.56° C | 39% | 1012.4 hPa | 0 mm | - | 22 W/m² | - |
| 1788480656 | 35.56° C | 38% | 1012.4 hPa | 0 mm | - | 25 W/m² | - |
| 1788480351 | 36.11° C | 38% | 1012.4 hPa | 0 mm | - | 29 W/m² | - |
| 1788480047 | 36.11° C | 37% | 1012.4 hPa | 0 mm | - | 31 W/m² | - |
| 1788479742 | 36.67° C | 37% | 1012.3 hPa | 0 mm | - | 41 W/m² | - |
| 1788479437 | 36.67° C | 36% | 1012.3 hPa | 0 mm | - | 55 W/m² | - |
| 1788479133 | 36.67° C | 37% | 1012.3 hPa | 0 mm | - | 63 W/m² | - |
| 1788478828 | 36.67° C | 37% | 1012.3 hPa | 0 mm | - | 59 W/m² | - |
| 1788478524 | 36.67° C | 36% | 1012.4 hPa | 0 mm | - | 63 W/m² | - |
| 1788478220 | 36.67° C | 36% | 1012.4 hPa | 0 mm | - | 50 W/m² | - |
| 1788477914 | 37.22° C | 35% | 1012.4 hPa | 0 mm | - | 96 W/m² | - |
| 1788477609 | 37.22° C | 35% | 1012.2 hPa | 0 mm | - | 115 W/m² | - |
| 1788477303 | 37.22° C | 35% | 1012.3 hPa | 0 mm | - | 133 W/m² | - |
| 1788476998 | 37.78° C | 34% | 1012.3 hPa | 0 mm | - | 148 W/m² | - |
| 1788476694 | 38.33° C | 34% | 1012.1 hPa | 0 mm | - | 167 W/m² | - |
| 1788476391 | 37.78° C | 34% | 1012.2 hPa | 0 mm | - | 178 W/m² | - |
| 1788476085 | 37.78° C | 34% | 1012.2 hPa | 0 mm | - | 194 W/m² | - |
| 1788475782 | 37.78° C | 34% | 1012.2 hPa | 0 mm | - | 212 W/m² | - |
| 1788475477 | 38.33° C | 34% | 1012.2 hPa | 0 mm | - | 219 W/m² | - |
| 1788475173 | 38.33° C | 34% | 1012 hPa | 0 mm | - | 230 W/m² | - |
* Rain latest hour (hover to see other rain measurements)
** Current wind speed in m/s (hover to see current wind gust speed)